Location: Clairmont
(55.2667°N, 118.8000°W)
Time: 09:38:52
(UTC+00:00)

N. Korean satellite - Pass Details

Date: 27 October 2020
Orbit: 453 x 503 km, 97.2° (Epoch: 03 December)

Event Time Altitude Azimuth Distance (km) Brightness Sun altitude
Rises 01:54:53 0° 220° (SW) 2,546 10.9 -12.8°
Reaches altitude 10° 01:58:30 10° 259° (WSW) 1,658 10.7 -13.3°
Maximum altitude 01:59:26 11° 274° (W) 1,605 10.6 -13.5°
Drops below altitude 10° 02:00:23 10° 289° (WNW) 1,654 10.4 -13.6°
Sets 02:03:58 0° 329° (NNW) 2,525 10.6 -14.1°
